sat.trackr.live / text

‹ back to catalog

STARLINK-31462

NORAD 59466 · 2024-068M

PAYLOAD ACTIVE UNKNOWN

§ Identity

Operator
Country
US
Launch date
2024-04-10
Launch site
AFETR
Launch vehicle
Mass (kg)
RCS (m²)

Purposes: comms

External: N2YO · Heavens-Above · Gunter

§ Orbital elements

Epoch: 2026-09-20T23:58:54.498432Z

Period
94.27 min
Inclination
43.0027°
Eccentricity
0.0001021
Mean motion
15.27573914 rev/d
Perigee alt
482.4 km
Apogee alt
483.8 km
Semi-major
6,861.2 km
B*
-5.9232e-6
RAAN
11.4231°
Arg perigee
271.5685°
Mean anomaly
88.5049°
Rev number
13,839

§ Raw data

STARLINK-314621 59466U 24068M   26263.99924188 -.00000425  00000+0 -59232-5 0  99972 59466  43.0027  11.4231 0001021 271.5685  88.5049 15.27573914138390

JSON: /api/v1/satellites/59466 · /tle

For live sub-satellite position, see the globe view (requires WebGL).

§ Visibility from observer

Set your observer location to see the next 7 days of passes ≥ 10°. The values pass through the URL so the page stays shareable.

No JS? Fill the form by hand. The geolocation button needs JavaScript.